When you browse on this site, cookies collect data to enhance your experience and personalize the content and advertising you see.
Visit our Privacy Policy to learn more. By continuing to use the site, you agree to this use of cookies and data.
  • In Germany
  • List of Countries
  • For 7 days
  • Water Temperature
  • Weather Map
  • Weather Widgets
  • user-avatar
    Login

    Hourly Weather Herāt

    Today, 24 September, Tuesday

    Time Temperature Precipitation Wind Pressure Humidity
    00:00 +19°C° 0 mm 1 mps 679 mmHg 53%
    01:00 +18°C° 0 mm 1 mps 679 mmHg 54%
    02:00 +18°C° 0 mm 1 mps 678 mmHg 55%
    03:00 +18°C° 0 mm 1 mps 678 mmHg 56%
    04:00 +16°C° 0 mm 1 mps 678 mmHg 61%
    05:00 +19°C° 0 mm 1 mps 679 mmHg 52%
    06:00 +21°C° 0 mm 1 mps 679 mmHg 42%
    07:00 +21°C° 0 mm 0 mps 680 mmHg 33%
    08:00 +26°C° 0 mm 1 mps 681 mmHg 27%
    09:00 +29°C° 0 mm 2 mps 681 mmHg 22%
    10:00 +32°C° 0 mm 2 mps 682 mmHg 16%
    11:00 +35°C° 0 mm 3 mps 682 mmHg 14%
    12:00 +37°C° 0 mm 4 mps 681 mmHg 12%
    13:00 +40°C° 0 mm 5 mps 681 mmHg 10%
    14:00 +39°C° 0 mm 6 mps 681 mmHg 11%
    15:00 +39°C° 0 mm 6 mps 680 mmHg 12%
    16:00 +38°C° 0 mm 7 mps 680 mmHg 13%
    17:00 +33°C° 0 mm 6 mps 680 mmHg 18%
    18:00 +28°C° 0 mm 5 mps 679 mmHg 24%
    19:00 +23°C° 0 mm 4 mps 679 mmHg 30%
    20:00 +22°C° 0 mm 4 mps 679 mmHg 32%
    21:00 +21°C° 0 mm 3 mps 679 mmHg 33%
    22:00 +20°C° 0 mm 3 mps 679 mmHg 35%
    23:00 +20°C° 0 mm 3 mps 679 mmHg 36%

    Tomorrow, 25 September, Wednesday

    Time Temperature Precipitation Wind Pressure Humidity
    00:00 +19°C° 0 mm 3 mps 678 mmHg 37%
    01:00 +18°C° 0 mm 2 mps 678 mmHg 39%
    02:00 +18°C° 0 mm 2 mps 678 mmHg 40%
    03:00 +17°C° 0 mm 2 mps 678 mmHg 41%
    04:00 +18°C° 0 mm 1 mps 678 mmHg 42%
    05:00 +20°C° 0 mm 1 mps 678 mmHg 37%
    06:00 +22°C° 0 mm 1 mps 679 mmHg 32%
    07:00 +24°C° 0 mm 1 mps 680 mmHg 27%
    08:00 +27°C° 0 mm 2 mps 681 mmHg 23%
    09:00 +29°C° 0 mm 2 mps 681 mmHg 19%
    10:00 +32°C° 0 mm 2 mps 682 mmHg 15%
    11:00 +35°C° 0 mm 3 mps 681 mmHg 13%
    12:00 +37°C° 0 mm 3 mps 681 mmHg 11%
    13:00 +40°C° 0 mm 4 mps 681 mmHg 9%
    14:00 +40°C° 0 mm 4 mps 681 mmHg 9%
    15:00 +40°C° 0 mm 5 mps 681 mmHg 8%
    16:00 +40°C° 0 mm 5 mps 681 mmHg 8%
    17:00 +35°C° 0 mm 4 mps 680 mmHg 13%
    18:00 +30°C° 0 mm 3 mps 679 mmHg 18%
    19:00 +26°C° 0 mm 2 mps 679 mmHg 24%
    20:00 +26°C° 0 mm 2 mps 679 mmHg 21%
    21:00 +26°C° 0 mm 3 mps 679 mmHg 19%
    22:00 +26°C° 0 mm 3 mps 680 mmHg 17%
    23:00 +25°C° 0 mm 2 mps 679 mmHg 19%

    Day after tomorrow, 26 September, Thursday

    Time Temperature Precipitation Wind Pressure Humidity
    00:00 +24°C° 0 mm 2 mps 679 mmHg 21%
    01:00 +23°C° 0 mm 2 mps 679 mmHg 23%
    02:00 +22°C° 0 mm 1 mps 679 mmHg 25%
    03:00 +22°C° 0 mm 1 mps 679 mmHg 28%
    04:00 +21°C° 0 mm 1 mps 679 mmHg 30%
    05:00 +23°C° 0 mm 1 mps 680 mmHg 26%
    06:00 +25°C° 0 mm 1 mps 680 mmHg 21%
    07:00 +27°C° 0 mm 1 mps 681 mmHg 17%
    08:00 +30°C° 0 mm 1 mps 682 mmHg 14%
    09:00 +33°C° 0 mm 1 mps 682 mmHg 11%
    10:00 +36°C° 0 mm 1 mps 683 mmHg 8%
    11:00 +39°C° 0 mm 2 mps 682 mmHg 7%
    12:00 +40°C° 0 mm 3 mps 682 mmHg 6%
    13:00 +43°C° 0 mm 3 mps 682 mmHg 6%
    14:00 +42°C° 0 mm 4 mps 681 mmHg 6%
    15:00 +42°C° 0 mm 5 mps 681 mmHg 7%
    16:00 +41°C° 0 mm 6 mps 680 mmHg 7%
    17:00 +36°C° 0 mm 5 mps 680 mmHg 11%
    18:00 +32°C° 0 mm 4 mps 679 mmHg 15%
    19:00 +27°C° 0 mm 3 mps 679 mmHg 18%
    20:00 +27°C° 0 mm 3 mps 679 mmHg 19%
    21:00 +26°C° 0 mm 3 mps 679 mmHg 19%
    22:00 +26°C° 0 mm 2 mps 679 mmHg 19%
    23:00 +25°C° 0 mm 2 mps 678 mmHg 22%

    27 September, Friday

    Time Temperature Precipitation Wind Pressure Humidity
    00:00 +24°C° 0 mm 1 mps 678 mmHg 25%
    01:00 +23°C° 0 mm 1 mps 678 mmHg 28%
    02:00 +22°C° 0 mm 1 mps 678 mmHg 29%
    03:00 +22°C° 0 mm 1 mps 678 mmHg 29%
    04:00 +21°C° 0 mm 1 mps 678 mmHg 30%
    05:00 +23°C° 0 mm 1 mps 679 mmHg 25%
    06:00 +25°C° 0 mm 1 mps 680 mmHg 21%
    07:00 +27°C° 0 mm 1 mps 680 mmHg 16%
    08:00 +30°C° 0 mm 1 mps 681 mmHg 13%
    09:00 +33°C° 0 mm 1 mps 682 mmHg 11%
    10:00 +36°C° 0 mm 1 mps 682 mmHg 8%
    11:00 +39°C° 0 mm 2 mps 682 mmHg 7%
    12:00 +40°C° 0 mm 3 mps 681 mmHg 6%
    13:00 +42°C° 0 mm 3 mps 681 mmHg 6%
    14:00 +42°C° 0 mm 4 mps 681 mmHg 6%
    15:00 +42°C° 0 mm 4 mps 680 mmHg 6%
    16:00 +41°C° 0 mm 5 mps 680 mmHg 7%
    17:00 +37°C° 0 mm 5 mps 680 mmHg 9%
    18:00 +34°C° 0 mm 5 mps 679 mmHg 12%
    19:00 +30°C° 0 mm 4 mps 679 mmHg 14%
    20:00 +28°C° 0 mm 4 mps 679 mmHg 15%
    21:00 +27°C° 0 mm 3 mps 679 mmHg 17%
    22:00 +26°C° 0 mm 3 mps 679 mmHg 18%
    23:00 +25°C° 0 mm 2 mps 678 mmHg 20%

    28 September, Saturday

    Time Temperature Precipitation Wind Pressure Humidity
    00:00 +24°C° 0 mm 2 mps 678 mmHg 21%
    01:00 +23°C° 0 mm 2 mps 678 mmHg 23%
    02:00 +23°C° 0 mm 1 mps 678 mmHg 24%
    03:00 +22°C° 0 mm 1 mps 677 mmHg 25%
    04:00 +22°C° 0 mm 1 mps 677 mmHg 27%
    05:00 +24°C° 0 mm 1 mps 678 mmHg 23%
    06:00 +25°C° 0 mm 1 mps 679 mmHg 19%
    07:00 +27°C° 0 mm 2 mps 680 mmHg 15%
    08:00 +30°C° 0 mm 2 mps 680 mmHg 13%
    09:00 +32°C° 0 mm 2 mps 680 mmHg 11%
    10:00 +36°C° 0 mm 3 mps 681 mmHg 9%
    11:00 +37°C° 0 mm 4 mps 680 mmHg 8%
    12:00 +38°C° 0 mm 4 mps 680 mmHg 8%
    13:00 +40°C° 0 mm 5 mps 680 mmHg 7%
    14:00 +40°C° 0 mm 6 mps 679 mmHg 7%
    15:00 +39°C° 0 mm 7 mps 679 mmHg 8%
    16:00 +38°C° 0 mm 8 mps 678 mmHg 9%
    17:00 +33°C° 0 mm 7 mps 678 mmHg 13%
    18:00 +29°C° 0 mm 5 mps 677 mmHg 18%
    19:00 +25°C° 0 mm 4 mps 677 mmHg 22%
    20:00 +23°C° 0 mm 4 mps 677 mmHg 22%
    21:00 +24°C° 0 mm 3 mps 677 mmHg 22%
    22:00 +22°C° 0 mm 3 mps 677 mmHg 21%
    23:00 +21°C° 0 mm 3 mps 676 mmHg 23%

    29 September, Sunday

    Time Temperature Precipitation Wind Pressure Humidity
    00:00 +20°C° 0 mm 2 mps 676 mmHg 24%
    01:00 +19°C° 0 mm 2 mps 675 mmHg 26%
    02:00 +19°C° 0 mm 2 mps 675 mmHg 26%
    03:00 +19°C° 0 mm 2 mps 675 mmHg 25%
    04:00 +19°C° 0 mm 2 mps 675 mmHg 25%
    05:00 +21°C° 0 mm 2 mps 676 mmHg 23%
    06:00 +23°C° 0 mm 2 mps 677 mmHg 21%
    07:00 +25°C° 0 mm 2 mps 677 mmHg 20%
    08:00 +27°C° 0 mm 3 mps 678 mmHg 18%
    09:00 +29°C° 0 mm 4 mps 679 mmHg 16%
    10:00 +32°C° 0 mm 5 mps 680 mmHg 14%
    11:00 +33°C° 0 mm 5 mps 680 mmHg 14%
    12:00 +34°C° 0 mm 6 mps 680 mmHg 14%
    13:00 +35°C° 0 mm 7 mps 680 mmHg 13%
    14:00 +34°C° 0 mm 7 mps 679 mmHg 15%
    15:00 +32°C° 0 mm 8 mps 679 mmHg 17%
    16:00 +31°C° 0 mm 9 mps 679 mmHg 19%
    17:00 +28°C° 0 mm 8 mps 679 mmHg 24%
    18:00 +24°C° 0 mm 8 mps 679 mmHg 30%
    19:00 +21°C° 0 mm 7 mps 680 mmHg 36%
    20:00 +20°C° 0 mm 7 mps 680 mmHg 38%
    21:00 +19°C° 0 mm 6 mps 680 mmHg 41%
    22:00 +17°C° 0 mm 6 mps 680 mmHg 43%
    23:00 +16°C° 0 mm 5 mps 680 mmHg 46%
    Show more